Time,TemperatureF,DewpointF,PressureIn,WindDirection,WindDirectionDegrees,WindSpeedMPH,WindSpeedGustMPH,Humidity,HourlyPrecipIn,Conditions,Clouds,dailyrainin,SolarRadiationWatts/m^2,SoftwareType,DateUTC
2013-08-26 00:01:00,75.5,-99.9,29.94,SSE,149,0.0,0.0,84,0.00,,,0.00,0,,2013-08-26 05:01:00,
2013-08-26 00:11:00,75.7,-99.9,29.94,NE,48,0.0,0.0,84,0.00,,,0.00,0,,2013-08-26 05:11:00,
2013-08-26 00:21:00,75.2,-99.9,29.94,NE,48,0.0,2.1,86,0.00,,,0.00,0,,2013-08-26 05:21:00,
2013-08-26 00:31:00,74.9,-99.9,29.95,SSW,206,0.0,0.0,86,0.00,,,0.00,0,,2013-08-26 05:31:00,
2013-08-26 00:41:00,74.6,-99.9,29.95,SSW,195,0.0,0.0,87,0.00,,,0.00,0,,2013-08-26 05:41:00,
2013-08-26 00:51:00,74.5,-99.9,29.94,NE,51,0.0,0.0,88,0.00,,,0.00,0,,2013-08-26 05:51:00,
2013-08-26 01:01:00,74.5,-99.9,29.94,ENE,58,0.0,0.0,87,0.00,,,0.00,0,,2013-08-26 06:01:00,
2013-08-26 01:11:00,73.9,-99.9,29.94,NNE,18,0.0,0.0,89,0.00,,,0.00,0,,2013-08-26 06:11:00,
2013-08-26 01:21:00,74.2,-99.9,29.94,NE,49,0.0,2.1,88,0.00,,,0.00,0,,2013-08-26 06:21:00,
2013-08-26 01:31:00,74.0,-99.9,29.93,NNE,30,0.0,0.0,88,0.00,,,0.00,0,,2013-08-26 06:31:00,
2013-08-26 01:41:00,73.8,-99.9,29.93,NNE,21,0.0,0.0,88,0.00,,,0.00,0,,2013-08-26 06:41:00,
2013-08-26 01:51:00,73.4,-99.9,29.93,ENE,76,0.0,0.0,89,0.00,,,0.00,0,,2013-08-26 06:51:00,
2013-08-26 02:01:00,73.4,-99.9,29.93,NE,39,0.0,0.0,88,0.00,,,0.00,0,,2013-08-26 07:01:00,
2013-08-26 02:11:00,72.8,-99.9,29.92,South,191,0.0,0.0,90,0.00,,,0.00,0,,2013-08-26 07:11:00,
2013-08-26 02:21:00,72.3,-99.9,29.92,SE,127,0.0,0.0,92,0.00,,,0.00,0,,2013-08-26 07:21:00,
2013-08-26 02:31:00,71.5,-99.9,29.92,SW,222,0.0,0.0,93,0.00,,,0.00,0,,2013-08-26 07:31:00,
2013-08-26 02:41:00,71.5,-99.9,29.92,NE,56,0.0,0.0,93,0.00,,,0.00,0,,2013-08-26 07:41:00,
2013-08-26 02:51:00,71.5,-99.9,29.92,SSE,151,0.0,0.0,93,0.00,,,0.00,0,,2013-08-26 07:51:00,
2013-08-26 03:01:00,71.1,-99.9,29.92,SSE,166,0.0,0.0,93,0.00,,,0.00,0,,2013-08-26 08:01:00,
2013-08-26 03:11:00,70.8,-99.9,29.92,South,191,0.0,0.0,95,0.00,,,0.00,0,,2013-08-26 08:11:00,
2013-08-26 03:21:00,70.7,-99.9,29.92,South,191,0.0,0.0,95,0.00,,,0.00,0,,2013-08-26 08:21:00,
2013-08-26 03:31:00,70.9,-99.9,29.92,South,191,0.0,0.0,94,0.00,,,0.00,0,,2013-08-26 08:31:00,
2013-08-26 03:41:00,70.3,-99.9,29.92,South,179,0.0,0.0,94,0.00,,,0.00,0,,2013-08-26 08:41:00,
2013-08-26 03:51:00,70.4,-99.9,29.92,SSW,194,0.0,0.0,92,0.00,,,0.00,0,,2013-08-26 08:51:00,
2013-08-26 04:01:00,70.3,-99.9,29.93,SW,229,0.0,0.0,92,0.00,,,0.00,0,,2013-08-26 09:01:00,
2013-08-26 04:11:00,70.1,-99.9,29.93,South,176,0.0,0.0,93,0.00,,,0.00,0,,2013-08-26 09:11:00,
2013-08-26 04:21:00,70.2,-99.9,29.93,South,176,0.0,0.0,93,0.00,,,0.00,0,,2013-08-26 09:21:00,
2013-08-26 04:31:00,70.6,-99.9,29.93,NE,43,0.0,0.0,94,0.00,,,0.00,0,,2013-08-26 09:31:00,
2013-08-26 04:41:00,70.3,-99.9,29.93,East,84,0.0,0.0,94,0.00,,,0.00,0,,2013-08-26 09:41:00,
2013-08-26 04:51:00,70.3,-99.9,29.93,North,4,0.0,0.0,93,0.00,,,0.00,0,,2013-08-26 09:51:00,
2013-08-26 05:01:00,70.3,-99.9,29.93,NNE,19,0.0,0.0,92,0.00,,,0.00,0,,2013-08-26 10:01:00,
2013-08-26 05:11:00,70.1,-99.9,29.93,South,186,0.0,0.0,92,0.00,,,0.00,0,,2013-08-26 10:11:00,
2013-08-26 05:21:00,69.8,-99.9,29.94,South,181,0.0,0.0,93,0.00,,,0.00,0,,2013-08-26 10:21:00,
2013-08-26 05:31:00,69.6,-99.9,29.94,ENE,76,0.0,0.0,92,0.00,,,0.00,0,,2013-08-26 10:31:00,
2013-08-26 05:41:00,70.0,-99.9,29.94,NW,326,0.0,0.0,91,0.00,,,0.00,0,,2013-08-26 10:41:00,
2013-08-26 05:51:00,69.8,-99.9,29.94,ENE,58,0.0,0.0,92,0.00,,,0.00,0,,2013-08-26 10:51:00,
2013-08-26 06:01:00,69.2,-99.9,29.94,SW,223,0.0,0.0,93,0.00,,,0.00,0,,2013-08-26 11:01:00,
2013-08-26 06:11:00,68.9,-99.9,29.94,SSW,203,0.0,0.0,94,0.00,,,0.00,0,,2013-08-26 11:11:00,
2013-08-26 06:21:00,69.0,-99.9,29.94,ESE,106,0.0,0.0,94,0.00,,,0.00,0,,2013-08-26 11:21:00,
2013-08-26 06:31:00,68.8,-99.9,29.94,SE,138,0.0,0.0,94,0.00,,,0.00,1.459,,2013-08-26 11:31:00,
2013-08-26 06:41:00,68.6,-99.9,29.94,SW,215,0.0,0.0,94,0.00,,,0.00,2.031,,2013-08-26 11:41:00,
2013-08-26 06:51:00,68.5,-99.9,29.94,SSE,168,0.0,0.0,95,0.00,,,0.00,3.936,,2013-08-26 11:51:00,
2013-08-26 07:01:00,68.2,-99.9,29.94,SSW,206,0.0,0.0,94,0.00,,,0.00,6.677,,2013-08-26 12:01:00,
2013-08-26 07:11:00,68.3,-99.9,29.94,SSE,163,0.0,0.0,95,0.00,,,0.00,21.19,,2013-08-26 12:11:00,
2013-08-26 07:21:00,68.5,-99.9,29.94,WSW,240,0.0,0.0,94,0.00,,,0.00,66.57,,2013-08-26 12:21:00,
2013-08-26 07:31:00,70.1,-99.9,29.94,East,85,0.0,0.0,92,0.00,,,0.00,101.9,,2013-08-26 12:31:00,
2013-08-26 07:41:00,72.3,-99.9,29.94,South,169,0.0,0.0,87,0.00,,,0.00,135.6,,2013-08-26 12:41:00,
2013-08-26 07:51:00,74.0,-99.9,29.94,SSW,199,0.0,0.0,82,0.00,,,0.00,186,,2013-08-26 12:51:00,
2013-08-26 08:01:00,76.4,-99.9,29.94,NE,36,0.0,0.0,77,0.00,,,0.00,217,,2013-08-26 13:01:00,
2013-08-26 08:11:00,78.3,-99.9,29.94,ENE,74,0.0,0.0,74,0.00,,,0.00,219.1,,2013-08-26 13:11:00,
2013-08-26 08:21:00,76.4,-99.9,29.94,North,3,1.0,2.1,77,0.00,,,0.00,124.8,,2013-08-26 13:21:00,
2013-08-26 08:31:00,76.5,-99.9,29.94,North,1,0.0,0.0,77,0.00,,,0.00,151.4,,2013-08-26 13:31:00,
2013-08-26 08:41:00,77.4,-99.9,29.94,West,268,0.0,0.0,76,0.00,,,0.00,346.6,,2013-08-26 13:41:00,
2013-08-26 08:51:00,80.3,-99.9,29.94,NNE,12,0.0,0.0,72,0.00,,,0.00,387.8,,2013-08-26 13:51:00,
2013-08-26 09:01:00,80.9,-99.9,29.93,NE,38,1.0,3.8,72,0.00,,,0.00,374.1,,2013-08-26 14:01:00,
2013-08-26 09:11:00,81.9,-99.9,29.92,NNE,21,1.0,3.8,71,0.00,,,0.00,400.3,,2013-08-26 14:11:00,
2013-08-26 09:21:00,83.1,-99.9,29.92,ESE,107,2.0,3.8,70,0.00,,,0.00,441.9,,2013-08-26 14:21:00,
2013-08-26 09:31:00,84.0,-99.9,29.92,North,351,3.0,5.4,69,0.00,,,0.00,508.8,,2013-08-26 14:31:00,
2013-08-26 09:41:00,84.7,-99.9,29.92,ENE,61,4.0,5.4,70,0.00,,,0.00,409.3,,2013-08-26 14:41:00,
2013-08-26 09:51:00,85.4,-99.9,29.92,East,95,2.0,5.4,69,0.00,,,0.00,541.4,,2013-08-26 14:51:00,
2013-08-26 10:01:00,86.1,-99.9,29.91,East,81,7.0,10.5,67,0.00,,,0.00,654.4,,2013-08-26 15:01:00,
2013-08-26 10:11:00,85.5,-99.9,29.91,East,79,7.0,8.8,69,0.00,,,0.00,613.1,,2013-08-26 15:11:00,
2013-08-26 10:21:00,84.8,-99.9,29.91,ENE,76,5.0,7.1,71,0.00,,,0.00,380.4,,2013-08-26 15:21:00,
2013-08-26 10:31:00,86.1,-99.9,29.91,East,86,6.0,10.5,69,0.00,,,0.00,622.5,,2013-08-26 15:31:00,
2013-08-26 10:41:00,85.5,-99.9,29.91,ENE,67,4.0,7.1,70,0.00,,,0.00,345.6,,2013-08-26 15:41:00,
2013-08-26 10:51:00,86.0,-99.9,29.91,SE,145,4.0,5.4,70,0.00,,,0.00,332.7,,2013-08-26 15:51:00,
2013-08-26 11:01:00,86.0,-99.9,29.91,East,86,6.0,10.5,69,0.00,,,0.00,361.3,,2013-08-26 16:01:00,
2013-08-26 11:11:00,86.1,-99.9,29.90,East,88,6.0,8.8,70,0.00,,,0.00,374.9,,2013-08-26 16:11:00,
2013-08-26 11:21:00,86.7,-99.9,29.90,ENE,72,3.0,7.1,68,0.00,,,0.00,353.6,,2013-08-26 16:21:00,
2013-08-26 11:31:00,86.8,-99.9,29.90,East,93,6.0,8.8,68,0.00,,,0.00,366.5,,2013-08-26 16:31:00,
2013-08-26 11:41:00,87.4,-99.9,29.90,ESE,115,2.0,5.4,66,0.00,,,0.00,493.8,,2013-08-26 16:41:00,
2013-08-26 11:51:00,87.3,-99.9,29.90,NE,39,3.0,5.4,67,0.00,,,0.00,424.7,,2013-08-26 16:51:00,
2013-08-26 12:01:00,86.9,-99.9,29.91,NE,44,5.0,8.8,66,0.00,,,0.00,222.2,,2013-08-26 17:01:00,
2013-08-26 12:11:00,86.5,-99.9,29.91,ENE,57,4.0,7.1,67,0.00,,,0.00,205.4,,2013-08-26 17:11:00,
2013-08-26 12:21:00,86.7,-99.9,29.91,ENE,60,3.0,7.1,67,0.00,,,0.00,139.3,,2013-08-26 17:21:00,
2013-08-26 12:31:00,86.3,-99.9,29.91,ENE,59,2.0,3.8,67,0.00,,,0.00,143.4,,2013-08-26 17:31:00,
2013-08-26 12:41:00,86.5,-99.9,29.91,East,101,2.0,3.8,67,0.00,,,0.00,146.9,,2013-08-26 17:41:00,
2013-08-26 12:51:00,86.6,-99.9,29.91,NE,40,0.0,3.8,68,0.00,,,0.00,130.2,,2013-08-26 17:51:00,
2013-08-26 13:01:00,86.2,-99.9,29.91,East,82,3.0,5.4,68,0.00,,,0.00,133.6,,2013-08-26 18:01:00,
2013-08-26 13:11:00,86.1,-99.9,29.91,NE,55,2.0,5.4,68,0.00,,,0.00,86.8,,2013-08-26 18:11:00,
2013-08-26 13:21:00,85.6,-99.9,29.91,NE,36,2.0,3.8,69,0.00,,,0.00,86.1,,2013-08-26 18:21:00,
2013-08-26 13:31:00,85.5,-99.9,29.91,ENE,60,4.0,7.1,69,0.00,,,0.00,107.1,,2013-08-26 18:31:00,
2013-08-26 13:41:00,85.3,-99.9,29.90,East,84,2.0,3.8,69,0.00,,,0.00,89.6,,2013-08-26 18:41:00,
2013-08-26 13:51:00,84.6,-99.9,29.90,NNE,17,2.0,5.4,72,0.00,,,0.00,74.5,,2013-08-26 18:51:00,
2013-08-26 14:01:00,84.2,-99.9,29.91,North,8,4.0,7.1,73,0.00,,,0.00,81.9,,2013-08-26 19:01:00,
2013-08-26 14:11:00,84.2,-99.9,29.91,NE,52,7.0,10.5,73,0.00,,,0.00,111.1,,2013-08-26 19:11:00,
2013-08-26 14:21:00,83.8,-99.9,29.91,North,1,4.0,7.1,74,0.00,,,0.00,85.1,,2013-08-26 19:21:00,
2013-08-26 14:31:00,83.5,-99.9,29.90,NE,36,5.0,8.8,73,0.00,,,0.00,89.3,,2013-08-26 19:31:00,
2013-08-26 14:41:00,83.0,-99.9,29.91,NNE,14,5.0,8.8,74,0.00,,,0.00,46.74,,2013-08-26 19:41:00,
2013-08-26 14:51:00,82.4,-99.9,29.91,North,8,7.0,12.1,76,0.00,,,0.00,60.27,,2013-08-26 19:51:00,
2013-08-26 15:01:00,81.7,-99.9,29.90,NNE,29,7.0,10.5,77,0.00,,,0.00,57.13,,2013-08-26 20:01:00,
2013-08-26 15:11:00,81.6,-99.9,29.90,NW,323,5.0,7.1,76,0.00,,,0.00,48.47,,2013-08-26 20:11:00,
2013-08-26 15:21:00,81.3,-99.9,29.90,NE,37,5.0,8.8,76,0.00,,,0.00,62.98,,2013-08-26 20:21:00,
2013-08-26 15:31:00,81.5,-99.9,29.89,North,4,7.0,10.5,75,0.00,,,0.00,103.1,,2013-08-26 20:31:00,
2013-08-26 15:41:00,81.7,-99.9,29.89,NNE,30,5.0,8.8,74,0.00,,,0.00,125.7,,2013-08-26 20:41:00,
2013-08-26 15:51:00,82.1,-99.9,29.88,NNE,32,5.0,10.5,72,0.00,,,0.00,265.7,,2013-08-26 20:51:00,
2013-08-26 16:01:00,83.0,-99.9,29.88,NE,37,4.0,7.1,70,0.00,,,0.00,255.7,,2013-08-26 21:01:00,
2013-08-26 16:11:00,82.9,-99.9,29.88,North,0,7.0,10.5,70,0.00,,,0.00,282,,2013-08-26 21:11:00,
2013-08-26 16:21:00,83.3,-99.9,29.88,NE,47,8.0,13.8,69,0.00,,,0.00,231.2,,2013-08-26 21:21:00,
2013-08-26 16:31:00,83.6,-99.9,29.88,ENE,63,5.0,8.8,68,0.00,,,0.00,241.2,,2013-08-26 21:31:00,
2013-08-26 16:41:00,83.6,-99.9,29.88,ENE,70,4.0,7.1,67,0.00,,,0.00,184.7,,2013-08-26 21:41:00,
2013-08-26 16:51:00,84.0,-99.9,29.88,NNE,20,3.0,5.4,66,0.00,,,0.00,192.6,,2013-08-26 21:51:00,
2013-08-26 17:01:00,84.6,-99.9,29.88,NNE,26,3.0,5.4,65,0.00,,,0.00,197.7,,2013-08-26 22:01:00,
2013-08-26 17:11:00,84.7,-99.9,29.88,NNW,344,4.0,7.1,65,0.00,,,0.00,213.4,,2013-08-26 22:11:00,
2013-08-26 17:21:00,85.6,-99.9,29.88,NNE,27,4.0,7.1,63,0.00,,,0.00,306.2,,2013-08-26 22:21:00,
2013-08-26 17:31:00,85.1,-99.9,29.88,NE,38,6.0,8.8,60,0.00,,,0.00,153.9,,2013-08-26 22:31:00,
2013-08-26 17:41:00,85.0,-99.9,29.88,NNE,33,5.0,7.1,58,0.00,,,0.00,171.7,,2013-08-26 22:41:00,
2013-08-26 17:51:00,84.6,-99.9,29.88,East,81,5.0,7.1,56,0.00,,,0.00,135.1,,2013-08-26 22:51:00,
2013-08-26 18:01:00,84.3,-99.9,29.87,NE,47,6.0,8.8,54,0.00,,,0.00,114.5,,2013-08-26 23:01:00,
2013-08-26 18:11:00,84.1,-99.9,29.87,ENE,70,3.0,5.4,53,0.00,,,0.00,118.3,,2013-08-26 23:11:00,
2013-08-26 18:21:00,83.9,-99.9,29.87,NE,39,4.0,5.4,55,0.00,,,0.00,91.4,,2013-08-26 23:21:00,
2013-08-26 18:31:00,83.6,-99.9,29.86,NNE,30,0.0,2.1,55,0.00,,,0.00,90.3,,2013-08-26 23:31:00,
2013-08-26 18:41:00,83.3,-99.9,29.87,North,9,3.0,5.4,54,0.00,,,0.00,87.4,,2013-08-26 23:41:00,
2013-08-26 18:51:00,82.9,-99.9,29.86,North,0,5.0,7.1,55,0.00,,,0.00,132.9,,2013-08-26 23:51:00,
2013-08-26 19:01:00,82.7,-99.9,29.86,NNE,17,4.0,8.8,56,0.00,,,0.00,111.5,,2013-08-27 00:01:00,
2013-08-26 19:11:00,81.8,-99.9,29.86,WNW,295,4.0,5.4,57,0.00,,,0.00,51.39,,2013-08-27 00:11:00,
2013-08-26 19:21:00,81.2,-99.9,29.87,NE,47,3.0,5.4,58,0.00,,,0.00,39.49,,2013-08-27 00:21:00,
2013-08-26 19:31:00,80.3,-99.9,29.87,NNE,24,4.0,7.1,59,0.00,,,0.00,29.04,,2013-08-27 00:31:00,
2013-08-26 19:41:00,79.7,-99.9,29.86,North,10,5.0,7.1,61,0.00,,,0.00,33.25,,2013-08-27 00:41:00,
2013-08-26 19:51:00,79.6,-99.9,29.86,NNE,13,2.0,3.8,61,0.00,,,0.00,21.39,,2013-08-27 00:51:00,
2013-08-26 20:01:00,79.4,-99.9,29.86,NNE,18,0.0,0.0,62,0.00,,,0.00,16.36,,2013-08-27 01:01:00,
2013-08-26 20:11:00,79.2,-99.9,29.87,SSW,209,0.0,0.0,64,0.00,,,0.00,8.39,,2013-08-27 01:11:00,
2013-08-26 20:21:00,78.6,-99.9,29.87,East,79,0.0,0.0,64,0.00,,,0.00,2.04,,2013-08-27 01:21:00,
2013-08-26 20:31:00,78.3,-99.9,29.87,NE,40,0.0,0.0,66,0.00,,,0.00,0.839,,2013-08-27 01:31:00,
2013-08-26 20:41:00,77.2,-99.9,29.87,SE,143,0.0,2.1,67,0.00,,,0.00,0,,2013-08-27 01:41:00,
2013-08-26 20:51:00,77.8,-99.9,29.88,SSE,150,3.0,5.4,65,0.00,,,0.00,0,,2013-08-27 01:51:00,
2013-08-26 21:01:00,77.7,-99.9,29.88,SE,126,0.0,0.0,66,0.00,,,0.00,0,,2013-08-27 02:01:00,
2013-08-26 21:11:00,77.1,-99.9,29.87,SSE,149,3.0,3.8,66,0.00,,,0.00,0,,2013-08-27 02:11:00,
2013-08-26 21:21:00,76.8,-99.9,29.86,SSE,148,0.0,0.0,67,0.00,,,0.00,0,,2013-08-27 02:21:00,
2013-08-26 21:31:00,76.6,-99.9,29.86,NE,36,0.0,0.0,66,0.00,,,0.00,0,,2013-08-27 02:31:00,
2013-08-26 21:41:00,76.8,-99.9,29.87,ESE,113,0.0,0.0,65,0.00,,,0.00,0,,2013-08-27 02:41:00,
2013-08-26 21:51:00,76.5,-99.9,29.87,NE,52,0.0,0.0,65,0.00,,,0.00,0,,2013-08-27 02:51:00,
2013-08-26 22:01:00,75.7,-99.9,29.87,NE,39,0.0,0.0,69,0.00,,,0.00,0,,2013-08-27 03:01:00,
2013-08-26 22:11:00,74.8,-99.9,29.88,NNE,32,0.0,0.0,72,0.00,,,0.00,0,,2013-08-27 03:11:00,
2013-08-26 22:21:00,73.9,-99.9,29.88,ESE,113,0.0,0.0,74,0.00,,,0.00,0,,2013-08-27 03:21:00,
2013-08-26 22:31:00,74.3,-99.9,29.88,North,2,0.0,0.0,71,0.00,,,0.00,0,,2013-08-27 03:31:00,
2013-08-26 22:41:00,74.6,-99.9,29.87,NE,46,0.0,0.0,71,0.00,,,0.00,0,,2013-08-27 03:41:00,
2013-08-26 22:51:00,74.3,-99.9,29.87,NNE,26,0.0,0.0,71,0.00,,,0.00,0,,2013-08-27 03:51:00,
2013-08-26 23:01:00,73.2,-99.9,29.87,NNE,33,0.0,0.0,75,0.00,,,0.00,0,,2013-08-27 04:01:00,
2013-08-26 23:11:00,73.1,-99.9,29.87,ENE,73,0.0,0.0,75,0.00,,,0.00,0,,2013-08-27 04:11:00,
2013-08-26 23:21:00,72.7,-99.9,29.87,NE,50,0.0,0.0,77,0.00,,,0.00,0,,2013-08-27 04:21:00,
2013-08-26 23:31:00,72.5,-99.9,29.86,NE,50,0.0,0.0,78,0.00,,,0.00,0,,2013-08-27 04:31:00,
2013-08-26 23:41:00,72.1,-99.9,29.86,ESE,112,0.0,0.0,79,0.00,,,0.00,0,,2013-08-27 04:41:00,
2013-08-26 23:51:00,71.6,-99.9,29.86,ESE,115,0.0,0.0,79,0.00,,,0.00,0,,2013-08-27 04:51:00,